Home   Weather   Korschenbroich   Past weeks

Flag for Germany Past Weather in Korschenbroich, North Rhine-Westphalia, Germany — Yesterday and Last 2 Weeks

Now
52 °F

Passing clouds.


Feels Like: 47 °F
Forecast: 42 / 51 °F
Wind: 15 mph from Southwest

Location: Monchengladbach Airport

Current Time: Feb 22, 2017 at 2:16:40 pm

Latest Report: Feb 22, 2017 at 1:20 pm


Visibility: N/A

Pressure: 29.74 "Hg

Humidity: 88%

Dew Point: 48 °F

Location of KorschenbroichLocation

Past Weather in Korschenbroich — Graph

°F

Korschenbroich Temperature Yesterday

Maximum temperature yesterday: 55 °F (at 1:20 pm)
Minimum temperature yesterday: 50 °F (at 7:50 am)
Average temperature yesterday: 52 °F

High & Low Weather Summary for the Past Weeks

 TemperatureHumidityPressure
High57 °F (Feb 15, 2:50 pm)100% (Feb 11, 8:20 am)30.54 "Hg (Feb 11, 8:20 am)
Low30 °F (Feb 14, 7:20 am)47% (Feb 14, 3:20 pm)29.74 "Hg (Feb 22, 11:20 am)
Average43 °F78%30.22 "Hg
* Reported Feb 7 12:20 pm — Feb 22 12:50 pm, Korschenbroich, Weather by CustomWeather, © 2017

Note: Actual official high and low records may vary slightly from our data, if they occured in-between our weather recording intervals... More about our weather records

Advertising

Korschenbroich Weather History for the Previous 24 Hours

Scroll right to see more
 ConditionsComfort  
Time TempWeatherWind HumidityBarometerVisibility
12:50 pm
Wed, Feb 22
52 °FLight rain. Passing clouds.15 mph88%29.74 "HgN/A
12:20 pm52 °FLight rain. Passing clouds.15 mph88%29.74 "HgN/A
11:50 am52 °FPassing clouds.15 mph88%29.74 "Hg5 mi
11:20 am50 °FLight rain. Passing clouds.16 mph94%29.74 "Hg5 mi
10:50 am50 °FLight rain. Passing clouds.15 mph94%29.77 "Hg4 mi
10:20 am50 °FLight rain. Passing clouds.15 mph94%29.77 "Hg5 mi
9:50 am50 °FLight rain. Passing clouds.15 mph94%29.77 "Hg4 mi
9:20 am50 °FLight rain. Partly cloudy.13 mph94%29.77 "Hg4 mi
8:50 am50 °FRain. Fog.15 mph94%29.77 "Hg3 mi
7:50 pm
Tue, Feb 21
50 °FPartly cloudy.5 mph94%29.95 "HgN/A
7:20 pm50 °FPassing clouds.5 mph88%29.98 "HgN/A
6:50 pm50 °FPassing clouds.6 mph88%29.98 "HgN/A
6:20 pm50 °FPassing clouds.6 mph82%29.98 "HgN/A
5:50 pm52 °FPassing clouds.6 mph72%29.98 "HgN/A
5:20 pm54 °FPassing clouds.9 mph67%29.98 "HgN/A
4:50 pm54 °FPassing clouds.9 mph63%29.98 "HgN/A
4:20 pm54 °FClear.8 mph63%29.98 "Hg10 mi
3:50 pm54 °FPassing clouds.12 mph63%29.98 "HgN/A
3:20 pm54 °FPassing clouds.13 mph63%29.98 "HgN/A
2:50 pm55 °FPassing clouds.10 mph63%29.98 "HgN/A
2:20 pm55 °FPassing clouds.12 mph59%29.98 "HgN/A
Weather by CustomWeather, © 2017

See weather overviewHow to use our weather pages